Location: Burgerwiesen
(48.6500°N, 15.6167°E)
Time: 03:29:01
(UTC+00:00)

Cosmos 1459 Rocket - Pass Details

Date: 09 April 2020
Orbit: 936 x 1001 km, 83.0° (Epoch: 04 June)

Event Time Altitude Azimuth Distance (km) Brightness Sun altitude
Rises 21:43:18 0° 353° (N) 3,734 8.1 -31.0°
Reaches altitude 10° 21:45:56 10° 358° (N) 2,777 7.2 -31.1°
Enters shadow 21:51:36 51° 56° (ENE) 1,227 4.5 -31.4°
